Flag for China

Past Weather in Qingdao, Shandong, China — Yesterday and Last 2 Weeks

Now
68 °F

Passing clouds.


Feels Like: 68 °F
Forecast: 73 / 62 °F
Wind: 10 mph from Northeast

Location: Qingdao Airport
Current Time: Sep 29, 2020 at 10:04:16 pm
Latest Report: Sep 29, 2020 at 9:00 pm
Visibility: N/A
Pressure29.92 "Hg
Humidity: 73%
Dew Point: 59 °F
Location of QingdaoLocation

Past Weather in Qingdao — Graph

°F

Qingdao Temperature Yesterday

Maximum temperature yesterday: 79 °F (at 12:00 pm)
Minimum temperature yesterday: 59 °F (at 5:00 am)
Average temperature yesterday: 69 °F

High & Low Weather Summary for the Past Weeks

 TemperatureHumidityPressure
High86 °F (Sep 16, 1:00 pm)100% (Sep 20, 6:00 am)30.12 "Hg (Sep 20, 6:00 am)
Low57 °F (Sep 18, 3:00 am)23% (Sep 19, 3:00 pm)29.74 "Hg (Sep 15, 6:00 pm)
Average71 °F70%29.97 "Hg
* Reported Sep 14 8:00 pm — Sep 29 8:00 pm, Qingdao. Weather by CustomWeather, © 2020

Note: Actual official high and low records may vary slightly from our data, if they occured in-between our weather recording intervals... More about our weather records

Qingdao Weather History for the Previous 24 Hours

Scroll right to see more
 ConditionsComfort  
Time TempWeatherWind HumidityBarometerVisibility
8:00 pm
Tue, Sep 29
70 °FPassing clouds.8 mph73%29.92 "HgN/A
7:00 pm72 °FPassing clouds.8 mph65%29.89 "HgN/A
6:00 pm73 °FClear.10 mph61%29.89 "Hg10 mi
5:00 pm75 °FSunny.13 mph57%29.86 "Hg10 mi
4:00 pm77 °FPassing clouds.10 mph54%29.83 "HgN/A
3:00 pm75 °FPassing clouds.13 mph57%29.83 "HgN/A
2:00 pm79 °FPassing clouds.10 mph48%29.86 "HgN/A
1:00 pm79 °FScattered clouds.8 mph45%29.86 "HgN/A
12:00 pm77 °FPassing clouds.6 mph51%29.89 "HgN/A
11:00 am75 °FPassing clouds.3 mph57%29.92 "HgN/A
10:00 am73 °FPassing clouds.3 mph61%29.92 "HgN/A
9:00 am72 °FSunny.1 mph69%29.92 "Hg10 mi
8:00 am68 °FSunny.1 mph83%29.92 "Hg10 mi
7:00 am66 °FPassing clouds.3 mph88%29.92 "HgN/A
6:00 am63 °FSunny.No wind94%29.92 "Hg10 mi
5:00 am64 °FClear.1 mph88%29.92 "Hg10 mi
4:00 am63 °FClear.1 mph94%29.92 "Hg10 mi
3:00 am64 °FClear.1 mph88%29.95 "Hg10 mi
2:00 am64 °FPassing clouds.1 mph83%29.95 "HgN/A
1:00 am64 °FPassing clouds.1 mph88%29.98 "HgN/A
12:00 am64 °FPassing clouds.No wind88%29.98 "HgN/A
11:00 pm
Mon, Sep 28
64 °FClear.No wind88%29.98 "Hg10 mi
10:00 pm64 °FClear.1 mph88%29.98 "Hg10 mi
Weather by CustomWeather, © 2020

See weather overview